Content
SEND FEEDBACK

Daily
Averages
Monthly
Summary
United States of America

INARAJAN, GUAM


Home > North America > United States > Guam
Elevation: 85 meters     Latitude: 13 18N     Longitude: 144 44E

WEATHER
 
SELECT A DAY
Number of Records: 342,038;   Date Range: 1/1/95 - 7/29/14
 
SHARE

PRINT THIS DATA

[ ← Previous Day ]
WEATHER ALMANAC - 6 JANUARY, 2013
[ Next Day → ]
[ °F ]   °C
Weather ElementAverageHighLow
Temperature24.5 °C28.3 °C (11:55 am)22 °C (9:24 am)
Dewpoint22.9 °C24 °C (12:18 am)22 °C (7:48 am)
Humidity91.2 %100 % (3:53 am)70 % (4:03 pm)
Barometer1009.1 hPa1011.9 hPa (8:51 am)1007.8 hPa (3:26 pm)
Wind Speed25.7 km/h40.7 km/h (7:32 am)
Wind Gust64.9 km/h (6:55 am)
Weather ElementAverage
Visibility9.2 km
Wind DirectionENE (79.9 °)

Weather ElementTotal
Precipitation54.86 mm
Cooling Degree Days6.8 (Base 18.3)
Growing Degree Days15.2 (Base 10)
Averaged from 170 records on 6 January, 2013
WEATHER CONDITIONS BREAKOUT
WIND DIRECTION BREAKOUT
WEATHER BY HOUR - 6 JANUARY, 2013
[ °F ]   °C
Local TimeTemperatureDewpointHumidityBarometerVisibilityWind DirectionWind SpeedGust SpeedPrecipitationEventsConditions
12:18 AM26 °C24 °C89 %1009.8 hPa16.1 kmENE (60°)29.6 km/h42.6 km/hLight Drizzle
12:23 AM25 °C24 °C94 %1009.5 hPa12.9 kmNE (50°)31.5 km/hRainLight Rain
12:24 AM25 °C24 °C94 %1009.5 hPa11.3 kmNE (50°)29.6 km/hRainLight Rain
12:33 AM25 °C24 °C94 %1009.5 hPa14.5 kmENE (70°)27.8 km/hRainLight Rain
12:34 AM25 °C24 °C94 %1009.5 hPa14.5 kmENE (70°)25.9 km/hOvercast
12:35 AM25 °C24 °C94 %1009.5 hPa16.1 kmENE (70°)27.8 km/hOvercast
12:37 AM25 °C24 °C94 %1009.5 hPa16.1 kmENE (70°)35.2 km/hRainLight Rain
12:44 AM24 °C23 °C94 %1009.5 hPa12.9 kmENE (70°)35.2 km/hRainLight Rain
12:46 AM24 °C23 °C94 %1009.5 hPa11.3 kmEast (80°)29.6 km/hLight Drizzle
12:55 AM24.1 °C22.7 °C92 %1009.5 hPa14.5 kmEast (80°)27.8 km/h0.25 mmLight Drizzle
1:41 AM24 °C23 °C94 %1008.8 hPa6.4 kmEast (100°)13 km/hRainRain
1:43 AM24 °C23 °C94 %1008.8 hPa4 kmESE (110°)24.1 km/h31.5 km/hRainHeavy Rain
1:44 AM24 °C23 °C94 %1008.8 hPa2.9 kmESE (110°)24.1 km/h31.5 km/hRainHeavy Rain
1:46 AM24 °C23 °C94 %1008.8 hPa1.9 kmESE (120°)18.5 km/h31.5 km/hRainHeavy Rain
1:47 AM24 °C23 °C94 %1008.8 hPa1.6 kmESE (120°)18.5 km/h31.5 km/hRainHeavy Rain
1:48 AM24 °C23 °C94 %1008.8 hPa1.6 kmESE (120°)18.5 km/h31.5 km/hRainHeavy Rain
1:50 AM24 °C23 °C94 %1008.8 hPa1.6 kmESE (120°)25.9 km/h31.5 km/hRainHeavy Rain
1:51 AM24 °C23 °C94 %1008.8 hPa1.6 kmESE (110°)22.2 km/h31.5 km/hRainHeavy Rain
1:55 AM24 °C23.1 °C95 %1008.8 hPa1.9 kmEast (90°)20.4 km/h8.89 mmRainHeavy Rain
1:57 AM24 °C23 °C94 %1008.8 hPa2.4 kmEast (90°)20.4 km/hRainHeavy Rain
2:03 AM24 °C23 °C94 %1008.8 hPa3.2 kmEast (80°)14.8 km/hRainRain
2:04 AM24 °C23 °C94 %1008.5 hPa4 kmEast (80°)14.8 km/hRainLight Rain
2:06 AM24 °C23 °C94 %1008.5 hPa4.8 kmEast (80°)18.5 km/hRainLight Rain
2:07 AM24 °C23 °C94 %1008.5 hPa6.4 kmEast (80°)18.5 km/hRainLight Rain
2:31 AM24 °C23 °C94 %1008.5 hPa4.8 kmNE (50°)13 km/hRainHeavy Rain
2:34 AM24 °C23 °C94 %1008.5 hPa4 kmNNE (30°)11.1 km/hRainHeavy Rain
2:35 AM24 °C23 °C94 %1008.5 hPa3.2 kmNNE (30°)11.1 km/hRainHeavy Rain
2:37 AM24 °C23 °C94 %1008.5 hPa2.9 kmNorth (10°)13 km/hRainHeavy Rain
2:38 AM24 °C23 °C94 %1008.5 hPa2.9 kmNorth (10°)13 km/hRainHeavy Rain
2:42 AM24 °C23 °C94 %1008.5 hPa1.9 kmNNE (30°)13 km/hRainHeavy Rain
2:43 AM24 °C23 °C94 %1008.5 hPa1.9 kmNE (40°)13 km/hRainHeavy Rain
2:44 AM24 °C23 °C94 %1008.5 hPa1.9 kmNE (40°)13 km/hRainHeavy Rain
2:47 AM24 °C23 °C94 %1008.5 hPa1.9 kmNE (50°)14.8 km/hRainHeavy Rain
2:49 AM24 °C23 °C94 %1008.5 hPa2.4 kmENE (60°)16.7 km/hRainLight Rain
2:52 AM24 °C23 °C94 %1008.5 hPa3.2 kmEast (80°)22.2 km/h29.6 km/hRainLight Rain
2:53 AM24 °C23 °C94 %1008.5 hPa4 kmEast (80°)22.2 km/h29.6 km/hRainLight Rain
2:54 AM24 °C23 °C94 %1008.5 hPa4.8 kmEast (90°)18.5 km/h29.6 km/hRainLight Rain
2:55 AM23.8 °C23.1 °C96 %1008.5 hPa4.8 kmESE (110°)14.8 km/h29.6 km/h11.68 mmRainLight Rain
2:58 AM24 °C23 °C94 %1008.5 hPa6.4 kmEast (100°)14.8 km/h29.6 km/hRainLight Rain
3:00 AM24 °C23 °C94 %1008.5 hPa6.4 kmEast (100°)11.1 km/h29.6 km/hRainLight Rain
3:08 AM24 °C23 °C94 %1008.5 hPa9.7 kmESE (110°)13 km/hRainLight Rain
3:11 AM24 °C23 °C94 %1008.5 hPa12.9 kmEast (100°)13 km/hRainLight Rain
3:12 AM24 °C23 °C94 %1008.5 hPa14.5 kmEast (100°)14.8 km/hOvercast
3:22 AM24 °C23 °C94 %1008.5 hPa16.1 kmEast (80°)20.4 km/hOvercast
3:23 AM24 °C23 °C94 %1008.5 hPa16.1 kmEast (80°)25.9 km/h37 km/hOvercast
3:29 AM24 °C23 °C94 %1008.1 hPa16.1 kmEast (80°)33.3 km/h42.6 km/hOvercast
3:34 AM24 °C23 °C94 %1008.1 hPa12.9 kmEast (90°)33.3 km/h42.6 km/hOvercast
3:35 AM24 °C23 °C94 %1008.1 hPa12.9 kmEast (100°)31.5 km/h42.6 km/hLight Drizzle
3:37 AM24 °C23 °C94 %1008.1 hPa11.3 kmEast (100°)31.5 km/h42.6 km/hLight Drizzle
3:43 AM24 °C23 °C94 %1008.1 hPa8 kmESE (110°)29.6 km/h42.6 km/hLight Drizzle
3:44 AM24 °C23 °C94 %1008.1 hPa8 kmESE (110°)29.6 km/h42.6 km/hLight Drizzle
3:45 AM24 °C23 °C94 %1008.1 hPa8 kmESE (120°)31.5 km/h42.6 km/hOvercast
3:51 AM24 °C23 °C94 %1008.1 hPa11.3 kmSE (130°)31.5 km/h40.7 km/hOvercast
3:52 AM24 °C23 °C94 %1008.1 hPa12.9 kmESE (120°)29.6 km/h40.7 km/hOvercast
3:53 AM23 °C23 °C100 %1008.1 hPa12.9 kmESE (120°)29.6 km/h40.7 km/hOvercast
3:55 AM23.4 °C22.8 °C96 %1008.5 hPa12.9 kmSE (130°)27.8 km/h40.7 km/h0.76 mmOvercast
4:13 AM23 °C23 °C100 %1008.5 hPa16.1 kmSE (130°)18.5 km/hRainLight Rain
4:18 AM24 °C23 °C94 %1008.5 hPa12.9 kmSE (130°)18.5 km/hRainLight Rain
4:30 AM24 °C23 °C94 %1008.5 hPa4 kmESE (110°)14.8 km/hRainHeavy Rain
4:34 AM24 °C23 °C94 %1008.5 hPa4 kmESE (120°)24.1 km/hRainRain
4:35 AM24 °C23 °C94 %1008.5 hPa4.8 kmESE (120°)22.2 km/hRainRain
4:41 AM23 °C23 °C100 %1008.5 hPa6.4 kmESE (110°)18.5 km/hOvercast
4:44 AM23 °C23 °C100 %1008.5 hPa6.4 kmESE (110°)16.7 km/hOvercast
4:50 AM24 °C23 °C94 %1008.5 hPa6.4 kmESE (110°)22.2 km/hOvercast
4:51 AM24 °C23 °C94 %1008.5 hPa6.4 kmESE (110°)18.5 km/hOvercast
4:53 AM23 °C23 °C100 %1008.8 hPa6.4 kmESE (110°)18.5 km/hRainLight Rain
4:55 AM23.5 °C22.8 °C96 %1008.8 hPa4.8 kmESE (110°)20.4 km/h2.79 mmRainLight Rain
4:56 AM24 °C23 °C94 %1008.5 hPa4.8 kmESE (110°)20.4 km/hOvercast
4:57 AM24 °C23 °C94 %1008.8 hPa4.8 kmESE (110°)20.4 km/hOvercast
4:59 AM24 °C23 °C94 %1008.8 hPa4.8 kmESE (110°)16.7 km/hRainLight Rain
5:07 AM24 °C23 °C94 %1008.8 hPa4 kmEast (90°)29.6 km/h38.9 km/hRainRain
5:09 AM24 °C23 °C94 %1008.8 hPa3.2 kmEast (90°)25.9 km/h38.9 km/hRainRain
5:13 AM24 °C23 °C94 %1008.8 hPa4 kmEast (90°)29.6 km/h40.7 km/hRainLight Rain
5:17 AM23 °C23 °C100 %1008.8 hPa4.8 kmEast (100°)25.9 km/h40.7 km/hRainLight Rain
5:19 AM23 °C23 °C100 %1008.8 hPa6.4 kmEast (100°)27.8 km/h40.7 km/hRainLight Rain
5:34 AM24 °C23 °C94 %1009.1 hPa8 kmEast (80°)27.8 km/h37 km/hRainLight Rain
5:55 AM23.4 °C22.8 °C96 %1009.5 hPa6.4 kmENE (70°)29.6 km/h46.3 km/h4.32 mmRainLight Rain
6:12 AM23 °C23 °C100 %1009.5 hPa4 kmEast (80°)37 km/h46.3 km/hRainRain
6:13 AM23 °C23 °C100 %1009.5 hPa4 kmEast (90°)35.2 km/h46.3 km/hRainRain
6:14 AM23 °C23 °C100 %1009.5 hPa3.2 kmEast (90°)35.2 km/h46.3 km/hRainHeavy Rain
6:16 AM23 °C23 °C100 %1009.8 hPa2.9 kmEast (80°)33.3 km/h46.3 km/hRainHeavy Rain
6:17 AM23 °C23 °C100 %1009.8 hPa2.9 kmEast (80°)35.2 km/h46.3 km/hRainHeavy Rain
6:20 AM23 °C23 °C100 %1009.8 hPa2.4 kmEast (90°)31.5 km/h46.3 km/hRainHeavy Rain
6:21 AM23 °C23 °C100 %1009.8 hPa2.4 kmEast (90°)27.8 km/h46.3 km/hRainHeavy Rain
6:22 AM23 °C23 °C100 %1009.8 hPa2.4 kmEast (80°)27.8 km/hRainHeavy Rain
6:24 AM23 °C23 °C100 %1009.8 hPa2.4 kmEast (90°)27.8 km/hRainHeavy Rain
6:27 AM23 °C23 °C100 %1009.8 hPa3.2 kmEast (90°)25.9 km/hRainHeavy Rain
6:30 AM23 °C23 °C100 %1009.8 hPa4 kmEast (90°)20.4 km/hRainRain
6:31 AM23 °C23 °C100 %1009.8 hPa4 kmEast (90°)20.4 km/hRainRain
6:34 AM23 °C23 °C100 %1009.8 hPa4.8 kmEast (90°)22.2 km/hRainLight Rain
6:45 AM24 °C23 °C94 %1009.8 hPa4 kmEast (80°)22.2 km/hRainRain
6:47 AM24 °C23 °C94 %1009.8 hPa3.2 kmEast (80°)24.1 km/hRainRain
6:48 AM24 °C23 °C94 %1009.8 hPa2.9 kmENE (70°)20.4 km/hRainHeavy Rain
6:51 AM24 °C23 °C94 %1009.8 hPa1.9 kmENE (60°)27.8 km/h37 km/hRainHeavy Rain
6:53 AM24 °C23 °C94 %1009.8 hPa1.6 kmENE (60°)33.3 km/h50.1 km/hRainHeavy Rain
6:55 AM23.6 °C23 °C96 %1010.2 hPa1.3 kmEast (90°)38.9 km/h64.9 km/h10.92 mmRainHeavy Rain
7:14 AM23 °C23 °C100 %1010.5 hPa0.8 kmEast (80°)37 km/h48.1 km/hFog-RainHeavy Rain
7:20 AM23 °C23 °C100 %1010.5 hPa1.3 kmEast (80°)37 km/h48.1 km/hRainLight Rain
7:24 AM24 °C23 °C94 %1010.5 hPa1.6 kmEast (90°)31.5 km/h48.1 km/hRainLight Rain
7:32 AM23 °C23 °C100 %1010.8 hPa1.3 kmEast (90°)40.7 km/h48.1 km/hRainRain
7:34 AM23 °C23 °C100 %1010.8 hPa1.6 kmEast (90°)40.7 km/h51.8 km/hRainRain
7:42 AM23 °C23 °C100 %1011.2 hPa1.9 kmEast (100°)33.3 km/h51.8 km/hRainRain
7:48 AM23 °C22 °C94 %1011.2 hPa1.9 kmEast (90°)33.3 km/h48.1 km/hRainRain
7:55 AM22.8 °C22.3 °C97 %1011.2 hPa1.9 kmEast (90°)33.3 km/h44.4 km/h10.92 mmRainRain
8:06 AM23 °C22 °C94 %1011.2 hPa1.9 kmEast (100°)31.5 km/h44.4 km/hRainRain
8:15 AM23 °C22 °C94 %1011.5 hPa2.4 kmEast (100°)25.9 km/hRainLight Rain
8:38 AM23 °C22 °C94 %1011.5 hPa2.4 kmESE (110°)27.8 km/hRainRain
8:51 AM23 °C22 °C94 %1011.9 hPa3.2 kmESE (110°)25.9 km/hRainLight Rain
8:55 AM22.7 °C22.2 °C97 %1011.9 hPa3.2 kmESE (120°)24.1 km/h4.06 mmRainLight Rain
8:56 AM23 °C22 °C94 %1011.9 hPa4 kmESE (120°)24.1 km/hRainLight Rain
8:59 AM23 °C22 °C94 %1011.9 hPa4.8 kmESE (110°)27.8 km/hRainLight Rain
9:04 AM23 °C22 °C94 %1011.9 hPa6.4 kmESE (110°)20.4 km/hOvercast
9:09 AM23 °C22 °C94 %1011.5 hPa9.7 kmESE (110°)16.7 km/hOvercast
9:22 AM23 °C22 °C94 %1011.5 hPa16.1 kmESE (110°)9.3 km/hMostly Cloudy
9:24 AM22 °C22 °C100 %1011.5 hPa16.1 kmESE (110°)7.4 km/hMostly Cloudy
10:55 AM27.1 °C23.1 °C79 %1010.8 hPa16.1 kmENE (70°)20.4 km/h31.5 km/hClear
11:55 AM28.3 °C23.6 °C75 %1009.8 hPa16.1 kmENE (60°)27.8 km/hClear
12:55 PM26.2 °C23.5 °C85 %1009.1 hPa14.5 kmNE (40°)31.5 km/hScattered Clouds
1:12 PM27 °C23 °C79 %1008.8 hPa16.1 kmENE (60°)31.5 km/hMostly Cloudy
1:14 PM26 °C23 °C83 %1009.1 hPa12.9 kmENE (60°)33.3 km/hMostly Cloudy
1:15 PM26 °C23 °C83 %1009.1 hPa9.7 kmENE (60°)31.5 km/hRainLight Rain
1:19 PM26 °C24 °C89 %1008.8 hPa6.4 kmENE (60°)22.2 km/h40.7 km/hRainLight Rain
1:22 PM26 °C24 °C89 %1008.8 hPa4.8 kmNE (50°)25.9 km/h40.7 km/hRainLight Rain
1:30 PM26 °C24 °C89 %1008.5 hPa14.5 kmNE (40°)25.9 km/h33.3 km/hMostly Cloudy
1:55 PM27.5 °C23.8 °C80 %1008.5 hPa16.1 kmNE (50°)25.9 km/h0.25 mmScattered Clouds
2:55 PM28.1 °C23.2 °C75 %1008.1 hPa16.1 kmENE (70°)27.8 km/h37 km/hPartly Cloudy
3:09 PM28 °C23 °C74 %1008.1 hPa16.1 kmENE (60°)25.9 km/hMostly Cloudy
3:16 PM28 °C23 °C74 %1008.1 hPa16.1 kmENE (60°)29.6 km/h40.7 km/hScattered Clouds
3:26 PM28 °C23 °C74 %1007.8 hPa16.1 kmENE (60°)25.9 km/hMostly Cloudy
3:29 PM28 °C23 °C74 %1008.1 hPa16.1 kmENE (60°)27.8 km/hScattered Clouds
3:55 PM27.7 °C22.9 °C75 %1008.1 hPa16.1 kmNE (50°)27.8 km/hScattered Clouds
3:58 PM28 °C23 °C74 %1008.1 hPa16.1 kmNE (50°)31.5 km/hMostly Cloudy
4:03 PM28 °C22 °C70 %1008.1 hPa16.1 kmENE (60°)29.6 km/hScattered Clouds
4:26 PM27 °C23 °C79 %1008.1 hPa16.1 kmENE (60°)29.6 km/h37 km/hMostly Cloudy
4:55 PM26.8 °C22.8 °C79 %1008.5 hPa16.1 kmENE (60°)31.5 km/hMostly Cloudy
4:58 PM27 °C23 °C79 %1008.5 hPa16.1 kmENE (60°)29.6 km/hScattered Clouds
5:05 PM27 °C23 °C79 %1008.5 hPa16.1 kmENE (60°)27.8 km/hMostly Cloudy
5:43 PM26 °C23 °C83 %1008.8 hPa16.1 kmENE (60°)29.6 km/hScattered Clouds
5:55 PM26.4 °C22.9 °C81 %1008.8 hPa16.1 kmENE (60°)31.5 km/hScattered Clouds
6:06 PM26 °C23 °C83 %1008.8 hPa16.1 kmENE (60°)27.8 km/hMostly Cloudy
6:16 PM26 °C22 °C78 %1009.1 hPa16.1 kmENE (60°)27.8 km/hScattered Clouds
6:55 PM26 °C23 °C83 %1009.5 hPa16.1 kmENE (60°)25.9 km/hScattered Clouds
7:01 PM26 °C23 °C83 %1009.5 hPa16.1 kmENE (60°)31.5 km/hMostly Cloudy
7:05 PM26 °C23 °C83 %1009.5 hPa16.1 kmNE (50°)29.6 km/h38.9 km/hScattered Clouds
7:06 PM26 °C23 °C83 %1009.5 hPa16.1 kmENE (60°)27.8 km/h38.9 km/hMostly Cloudy
7:11 PM26 °C23 °C83 %1009.5 hPa16.1 kmENE (60°)33.3 km/hScattered Clouds
7:53 PM26 °C23 °C83 %1009.5 hPa16.1 kmENE (60°)31.5 km/h42.6 km/hDrizzle
7:55 PM25.8 °C22.6 °C82 %1009.5 hPa16.1 kmENE (60°)27.8 km/h42.6 km/h0 mmDrizzle
8:02 PM25 °C23 °C89 %1009.8 hPa16.1 kmENE (60°)22.2 km/hPartly Cloudy
8:26 PM26 °C23 °C83 %1009.8 hPa16.1 kmNE (50°)29.6 km/hRainLight Rain
8:35 PM25 °C23 °C89 %1009.8 hPa16.1 kmENE (60°)27.8 km/hPartly Cloudy
8:55 PM25.5 °C23.5 °C89 %1009.8 hPa16.1 kmENE (60°)27.8 km/h0 mmScattered Clouds
9:12 PM25 °C23 °C89 %1009.8 hPa16.1 kmENE (60°)31.5 km/hMostly Cloudy
9:44 PM26 °C23 °C83 %1009.8 hPa12.9 kmNE (50°)31.5 km/h38.9 km/hLight Drizzle
9:52 PM25 °C23 °C89 %1009.8 hPa14.5 kmENE (60°)31.5 km/hMostly Cloudy
9:55 PM25.3 °C22.6 °C85 %1009.8 hPa16.1 kmENE (60°)37 km/h48.1 km/h0 mmMostly Cloudy
9:58 PM25 °C22 °C83 %1009.8 hPa16.1 kmENE (60°)35.2 km/h48.1 km/hScattered Clouds
10:29 PM26 °C23 °C83 %1009.8 hPa16.1 kmENE (60°)27.8 km/h42.6 km/hMostly Cloudy
10:36 PM25 °C22 °C83 %1009.8 hPa16.1 kmENE (60°)27.8 km/h40.7 km/hMostly Cloudy
10:45 PM25 °C23 °C89 %1009.8 hPa16.1 kmNE (50°)33.3 km/hMostly Cloudy
10:55 PM25.6 °C22.5 °C83 %1009.8 hPa16.1 kmENE (60°)31.5 km/h46.3 km/hMostly Cloudy
11:00 PM26 °C23 °C83 %1009.8 hPa16.1 kmENE (60°)31.5 km/h44.4 km/hScattered Clouds
11:01 PM26 °C23 °C83 %1009.8 hPa16.1 kmNE (50°)33.3 km/h44.4 km/hMostly Cloudy
11:32 PM25 °C22 °C83 %1009.5 hPa16.1 kmENE (60°)29.6 km/hRainLight Rain
11:38 PM25 °C23 °C89 %1009.5 hPa16.1 kmENE (60°)31.5 km/hRainLight Rain
11:40 PM25 °C23 °C89 %1009.5 hPa16.1 kmENE (60°)29.6 km/hMostly Cloudy
11:46 PM25 °C23 °C89 %1009.5 hPa16.1 kmENE (70°)25.9 km/hMostly Cloudy
11:49 PM25 °C23 °C89 %1009.5 hPa16.1 kmENE (60°)27.8 km/h38.9 km/hMostly Cloudy
11:55 PM25.6 °C23 °C85 %1009.5 hPa16.1 kmENE (70°)27.8 km/h38.9 km/h0 mmMostly Cloudy
11:59 PM26 °C23 °C83 %1009.5 hPa16.1 kmENE (60°)24.1 km/hMostly Cloudy
Hourly data recorded from PGUA, located 0 kilometers away from Inarajan, Guam







STORIES FROM OUR PARTNERS